Volver al catálogo

EXPRESS AM-2

ActivoComunicacionesGEO
NORAD 28629·PAYLOAD·🇷🇺 Russia

Lanzado Mar 29, 2005 desde Baikonur Cosmodrome

Loading…

TLE

ActualizadoSource: Space-Track

Época: Sep 14, 2026, 09:09 UTC

1 28629U 05010A   26257.38132516 -.00000099  00000-0  00000-0 0  9993
2 28629   9.9133  54.3711 0022360 114.2229  63.0307  0.99039428 41445

Sigue EXPRESS AM-2 en tiempo real con AllMySat

Download on the App Store